Wind_Speed
17 13 15 17 8 19 19 21 21 24 27 30 29 24 24 19 13 11 12 17 22 21 19 17 17 16 16 15 15 14 15 14 15 18 19 19 19 20 19 18 16 15 14
23 19 22 21 15 16 15 24 19 24 28 31 31 27 23 20 18 15 21 30 28 25 20 19 18 16 15 16 15 15 14 14 16 17 18 18 20 19 18 17 14 15 16
21 20 23 25 27 21 20 23 21 23 32 38 36 35 32 32 34 27 26 29 28 24 22 20 18 16 16 16 15 14 15 16 17 17 19 21 20 18 18 18 18 17 17
18 18 19 20 20 20 19 22 21 29 26 31 31 35 39 35 29 28 29 29 27 26 21 19 19 18 17 16 15 16 16 17 19 20 21 21 22 20 18 17 18 16 16
10 11 13 15 15 15 14 16 21 26 24 22 21 23 28 29 31 30 29 27 26 23 20 19 18 17 16 15 16 17 18 20 21 20 19 19 19 19 17 16 17 16 16
13 12 13 14 16 18 19 19 21 25 25 25 25 24 26 29 28 27 26 25 23 21 21 19 17 17 16 16 18 19 21 21 22 21 20 19 17 17 14 13 15 16 14
5 8 10 11 12 11 12 14 19 23 23 24 26 26 25 25 25 24 24 24 23 22 19 18 17 17 17 20 21 22 22 20 21 20 19 17 16 15 14 14 15 16 14
2 5 9 11 10 11 13 15 18 20 21 23 24 23 22 22 22 23 22 22 20 19 17 16 16 17 18 19 20 20 20 19 19 18 17 16 15 13 12 11 14 17 17
8 3 5 8 10 13 15 17 18 18 19 21 22 23 22 21 22 23 23 22 20 18 16 15 15 16 17 18 18 18 18 18 17 15 13 13 14 14 13 11 10 12 14
7 4 2 2 4 5 8 11 13 15 16 18 20 20 20 21 21 22 22 21 19 16 15 14 14 13 11 11 12 15 16 16 16 14 13 12 12 12 14 12 12 12 13
5 3 1 2 4 5 7 9 10 12 15 16 19 20 21 22 22 23 23 22 20 19 16 14 12 11 10 10 11 12 12 13 15 13 12 12 12 12 12 14 12 12 13
6 5 4 4 5 7 9 11 12 13 15 16 18 20 21 22 23 24 25 24 23 21 17 16 15 14 13 12 14 15 13 14 14 13 12 11 12 12 13 14 14 13 13
8 8 7 5 5 6 7 9 11 13 15 17 19 21 22 23 24 25 26 26 25 22 20 19 18 17 14 14 16 15 15 15 15 12 10 10 11 12 14 12 13 14 15
8 8 8 10 11 10 9 11 12 13 14 17 19 21 22 23 23 25 26 26 26 25 25 25 22 19 17 16 15 14 16 16 16 14 12 11 9 12 14 12 12 14 16
9 10 10 9 9 11 12 13 13 15 17 18 22 23 22 24 24 24 25 25 25 25 24 24 22 21 18 16 13 15 15 15 16 14 14 14 13 13 12 12 13 15 16
9 10 11 11 11 12 13 15 17 16 16 20 23 22 22 21 22 23 25 25 23 23 23 22 22 21 20 17 15 14 15 16 16 13 15 16 15 13 12 12 13 15 15
11 11 12 13 15 17 17 17 17 16 18 18 19 19 20 21 24 25 25 22 22 23 24 22 23 21 18 18 18 15 16 15 15 15 15 15 15 13 13 13 14 14 14
10 12 12 12 13 14 16 17 19 19 20 18 17 16 18 19 19 20 21 21 22 24 26 25 22 18 18 16 16 17 16 15 17 17 16 15 16 15 14 13 13 13 12
12 12 12 12 12 13 15 15 16 16 17 19 18 17 18 18 19 19 18 21 22 24 24 25 23 20 21 20 18 17 18 17 16 14 15 17 17 16 14 13 12 13 13
13 11 11 11 12 12 12 12 14 15 16 17 19 19 18 19 20 20 22 23 24 26 26 26 25 24 25 24 21 21 20 20 18 16 14 16 18 18 17 15 14 14 14
10 10 10 10 11 11 12 12 12 13 13 13 16 15 17 20 20 20 21 23 25 26 27 26 26 25 24 24 25 24 24 23 20 18 18 17 17 18 19 17 16 16 15
11 12 12 12 11 11 12 13 14 14 14 14 14 13 16 17 18 20 20 19 19 19 20 21 21 20 20 20 20 20 21 20 20 20 19 18 17 16 17 18 18 18 16
11 11 10 10 10 11 11 11 12 13 13 14 14 15 14 14 16 17 16 15 15 15 15 15 16 15 15 15 16 16 16 16 17 18 18 18 16 16 16 17 18 19 19
13 13 12 11 11 12 13 14 15 16 17 17 15 14 15 15 15 16 17 19 20 19 18 17 17 16 17 17 18 18 18 19 18 17 16 16 16 16 16 16 16 17 18
14 14 13 13 13 15 16 17 18 19 19 19 19 17 17 18 17 15 14 14 15 16 17 17 17 17 17 18 18 17 17 17 16 16 18 17 16 16 16 15 15 16 16
16 16 16 16 17 18 19 20 20 20 20 19 19 19 19 17 16 17 16 13 13 13 12 11 12 12 12 12 12 13 15 17 18 19 19 19 19 19 18 17 15 16 17
Wind_Direction
195 180 175 157 159 207 190 187 184 196 189 182 182 182 183 186 208 200 214 242 251 242 239 239 243 247 255 260 269 276 281 277 271 275 281 287 290 296 303 306 305 299 287
186 182 173 148 155 190 205 204 212 211 199 199 193 194 198 217 245 259 229 226 242 239 235 238 243 247 254 265 268 273 280 279 276 281 289 292 297 298 298 293 297 298 294
179 172 171 174 195 221 221 214 227 221 227 218 216 220 231 237 262 256 233 221 225 229 235 233 239 249 256 261 262 267 270 275 282 286 292 294 295 297 296 294 277 276 280
142 165 178 194 213 220 222 216 220 228 234 243 241 235 235 243 233 229 224 215 220 227 230 238 247 250 252 258 267 268 275 284 291 295 291 291 298 299 293 293 287 276 276
172 173 184 199 205 205 213 217 207 213 224 222 221 210 216 226 218 211 211 218 224 227 229 236 242 246 252 257 265 273 281 286 290 289 287 290 301 308 313 293 287 282 281
186 198 201 210 214 216 218 212 207 210 219 226 233 219 203 201 203 208 215 221 223 228 233 236 242 249 256 264 269 274 279 284 284 282 286 292 304 318 311 293 286 285 290
194 202 209 209 215 217 222 221 219 221 223 223 205 199 206 209 211 214 217 219 224 228 233 238 245 255 264 270 275 276 277 277 277 281 282 285 295 304 316 302 290 290 286
183 196 218 212 209 207 208 209 203 201 203 202 201 205 211 218 219 216 216 221 225 229 234 244 254 261 266 270 273 275 275 274 276 276 275 278 287 295 298 300 293 284 280
87 117 210 213 215 215 210 216 218 212 209 212 214 220 224 220 216 215 218 224 227 228 234 244 257 269 275 274 276 273 271 270 274 271 269 277 285 292 292 284 280 278 277
69 76 92 158 199 209 219 225 226 227 225 226 227 225 222 221 219 219 220 221 223 226 236 247 257 263 266 282 288 279 270 267 268 267 270 272 279 285 292 286 280 272 272
37 24 346 228 241 244 245 246 241 236 235 231 231 230 227 224 222 220 220 223 224 228 235 242 244 255 270 283 293 300 293 281 271 267 266 272 279 278 278 281 277 274 270
27 16 358 325 287 266 262 255 254 250 248 246 243 239 236 232 227 223 223 223 224 228 231 237 246 255 267 279 276 279 287 287 278 272 271 276 278 280 278 277 276 276 273
9 357 341 320 296 292 284 273 266 258 256 253 249 244 239 237 236 230 227 228 231 235 239 245 250 256 265 278 282 283 282 284 280 278 275 272 275 279 276 276 280 276 269
358 345 338 335 321 309 288 274 265 261 258 260 258 254 250 245 243 242 239 235 236 239 242 248 255 251 256 273 282 278 284 284 281 282 280 278 279 281 278 284 279 273 270
323 321 320 310 298 296 297 293 284 274 268 263 259 261 259 255 251 250 248 246 247 247 246 244 246 248 259 272 275 277 280 277 273 276 276 279 280 280 283 283 280 278 272
308 297 294 289 282 279 277 272 270 268 272 274 265 261 262 261 257 256 252 246 243 241 239 242 247 251 259 269 269 275 278 274 270 264 264 269 273 283 287 284 278 275 274
320 306 293 286 284 283 279 277 274 268 268 266 268 274 275 269 260 255 252 248 244 242 243 244 249 257 267 266 274 278 279 282 272 259 257 263 271 277 283 286 278 272 274
305 306 293 279 276 278 280 279 278 280 281 271 264 265 268 268 262 266 266 254 247 242 244 243 248 261 273 274 274 275 272 272 273 268 255 257 262 269 273 277 278 279 274
308 310 307 301 293 287 283 281 281 284 287 288 285 276 273 271 268 267 267 260 257 255 253 250 251 258 260 254 258 266 269 270 275 279 262 254 258 263 267 273 275 275 271
310 310 305 304 305 306 306 304 298 291 286 283 291 297 290 282 278 269 261 261 262 260 258 257 258 260 258 253 253 254 257 258 262 270 273 268 262 259 262 265 268 270 270
309 312 316 316 314 312 312 310 309 306 298 296 298 287 280 285 285 279 271 262 258 257 258 259 261 260 256 252 250 248 249 252 253 255 261 264 267 263 261 261 263 265 267
302 302 306 311 315 314 311 309 305 302 299 295 292 288 284 278 275 276 278 273 268 262 259 256 255 254 251 251 251 248 247 250 253 254 255 259 263 263 260 257 258 262 266
303 303 300 303 307 310 312 315 317 319 318 313 304 298 289 283 278 275 277 276 272 267 263 259 256 254 252 251 251 252 254 257 259 258 255 256 259 260 259 258 256 258 259
299 298 296 295 298 302 306 309 311 311 310 308 307 307 304 296 288 281 274 268 268 269 268 265 263 262 260 260 261 261 261 262 261 261 256 257 259 258 258 257 258 259 261
292 290 290 290 292 297 301 305 309 309 308 302 301 302 297 297 296 290 286 282 275 271 267 268 270 267 264 264 265 265 258 259 259 255 251 251 255 257 257 260 262 264 263
286 285 284 286 290 294 298 303 307 307 306 305 302 299 296 295 293 294 289 285 283 280 276 271 265 264 264 264 262 259 256 256 257 256 261 261 258 257 259 261 264 267 268
Height
1442 1446 1455 1460 1467 1472 1477 1482 1488 1492 1498 1501 1507 1511 1517 1521 1525 1526 1528 1537 1539 1542 1544 1546 1548 1549 1550 1550 1550 1550 1550 1550 1552 1553 1552 1550 1550 1549 1548 1547 1547 1546 1545
1439 1447 1454 1461 1467 1471 1476 1479 1483 1491 1494 1499 1501 1507 1512 1513 1518 1523 1525 1530 1537 1540 1542 1543 1544 1545 1545 1546 1546 1545 1545 1547 1548 1546 1546 1544 1544 1543 1541 1541 1541 1542 1541
1437 1448 1455 1459 1465 1470 1474 1476 1478 1485 1489 1492 1496 1501 1504 1507 1512 1517 1524 1527 1533 1537 1539 1539 1539 1540 1541 1542 1542 1541 1542 1543 1542 1540 1539 1540 1538 1535 1533 1532 1532 1531 1532
1445 1450 1456 1461 1465 1469 1472 1474 1475 1484 1488 1489 1490 1494 1501 1504 1508 1514 1520 1524 1528 1531 1532 1534 1536 1537 1536 1537 1538 1538 1538 1537 1537 1535 1536 1536 1534 1532 1529 1530 1531 1527 1529
1452 1455 1457 1462 1465 1469 1471 1473 1474 1480 1485 1488 1489 1492 1498 1502 1505 1509 1516 1521 1525 1528 1529 1530 1532 1534 1532 1532 1533 1533 1533 1532 1532 1532 1533 1531 1530 1527 1523 1524 1524 1524 1524
1453 1456 1459 1463 1466 1468 1472 1474 1475 1477 1481 1484 1489 1491 1497 1500 1502 1507 1513 1519 1521 1525 1526 1527 1528 1530 1529 1529 1529 1528 1528 1526 1527 1527 1527 1527 1526 1524 1521 1518 1519 1518 1518
1456 1458 1461 1464 1466 1467 1469 1472 1475 1478 1481 1484 1486 1492 1498 1501 1502 1506 1510 1515 1518 1520 1522 1523 1524 1525 1525 1525 1523 1522 1521 1520 1521 1520 1524 1522 1518 1516 1518 1516 1516 1519 1515
1459 1462 1465 1466 1467 1469 1471 1475 1477 1480 1482 1486 1489 1492 1496 1497 1500 1503 1508 1512 1514 1516 1518 1519 1520 1521 1520 1519 1519 1517 1516 1515 1515 1516 1517 1518 1514 1511 1508 1508 1511 1514 1514
1463 1464 1468 1468 1469 1471 1473 1476 1479 1481 1482 1486 1489 1492 1492 1494 1497 1501 1504 1507 1510 1513 1514 1514 1515 1516 1518 1515 1513 1514 1510 1510 1509 1510 1509 1511 1511 1510 1508 1505 1502 1505 1505
1466 1469 1469 1469 1471 1472 1474 1478 1480 1482 1483 1486 1488 1489 1489 1492 1495 1498 1501 1502 1505 1507 1509 1512 1511 1511 1511 1510 1508 1507 1506 1504 1506 1505 1505 1503 1503 1505 1507 1503 1503 1500 1501
1469 1470 1470 1471 1473 1472 1474 1476 1477 1479 1481 1483 1486 1488 1488 1491 1493 1496 1497 1499 1502 1504 1505 1508 1508 1508 1506 1504 1505 1502 1502 1502 1501 1499 1497 1496 1498 1498 1498 1502 1499 1497 1497
1470 1470 1469 1469 1471 1473 1473 1473 1474 1476 1477 1479 1482 1483 1485 1486 1489 1491 1494 1496 1497 1499 1500 1502 1504 1503 1504 1500 1500 1499 1498 1496 1496 1493 1491 1489 1494 1493 1495 1495 1496 1494 1495
1468 1470 1470 1468 1469 1470 1471 1471 1472 1473 1474 1477 1479 1479 1482 1483 1485 1490 1490 1491 1493 1495 1494 1496 1497 1498 1497 1497 1496 1492 1492 1493 1491 1489 1487 1483 1487 1489 1492 1488 1493 1491 1490
1469 1471 1471 1470 1470 1470 1472 1474 1474 1471 1472 1475 1478 1480 1481 1479 1480 1483 1485 1485 1488 1487 1487 1489 1488 1491 1494 1491 1487 1487 1489 1489 1486 1486 1485 1483 1481 1488 1488 1485 1484 1483 1484
1471 1472 1472 1471 1470 1469 1470 1472 1474 1472 1471 1473 1477 1476 1475 1474 1474 1476 1478 1479 1479 1481 1480 1481 1481 1482 1485 1485 1482 1484 1483 1481 1480 1481 1480 1479 1482 1483 1480 1477 1480 1481 1482
1478 1477 1474 1471 1471 1472 1473 1474 1472 1470 1469 1471 1471 1470 1470 1470 1469 1468 1470 1471 1471 1473 1470 1472 1474 1475 1476 1479 1479 1478 1478 1475 1475 1474 1476 1480 1480 1475 1474 1474 1475 1479 1479
1476 1474 1473 1473 1472 1472 1472 1471 1469 1468 1467 1467 1465 1464 1463 1461 1460 1462 1463 1464 1463 1465 1463 1464 1468 1469 1469 1473 1473 1474 1473 1470 1470 1470 1471 1474 1474 1471 1470 1469 1472 1474 1475
1474 1473 1473 1472 1472 1471 1470 1468 1467 1465 1465 1465 1464 1461 1459 1456 1456 1457 1459 1458 1457 1456 1456 1457 1460 1462 1465 1464 1467 1469 1469 1467 1464 1465 1465 1466 1469 1468 1465 1466 1468 1469 1470
1471 1470 1469 1468 1468 1467 1466 1466 1464 1462 1461 1460 1457 1456 1453 1452 1454 1453 1453 1451 1451 1451 1451 1451 1455 1455 1459 1461 1461 1460 1461 1462 1462 1459 1459 1462 1464 1462 1461 1461 1463 1465 1466
1466 1465 1464 1464 1463 1462 1461 1459 1458 1457 1455 1453 1451 1450 1448 1449 1448 1449 1449 1447 1445 1445 1446 1446 1448 1449 1452 1452 1452 1454 1455 1457 1456 1454 1454 1457 1457 1456 1455 1457 1459 1460 1462
1463 1462 1462 1460 1459 1459 1457 1456 1454 1453 1451 1449 1447 1447 1447 1446 1445 1443 1441 1440 1440 1440 1439 1439 1440 1442 1443 1444 1445 1447 1449 1450 1448 1448 1450 1451 1450 1449 1449 1452 1454 1456 1457
1458 1458 1457 1456 1455 1454 1453 1452 1451 1449 1448 1446 1444 1443 1442 1441 1440 1438 1436 1435 1434 1433 1433 1434 1435 1436 1436 1437 1439 1440 1441 1441 1442 1443 1443 1443 1443 1443 1444 1446 1448 1450 1452
1456 1455 1454 1453 1452 1451 1450 1448 1447 1446 1444 1443 1441 1439 1438 1436 1436 1435 1433 1432 1431 1431 1430 1430 1430 1430 1431 1432 1434 1434 1434 1435 1435 1436 1436 1436 1436 1437 1438 1440 1442 1444 1445
1451 1451 1450 1449 1448 1448 1447 1445 1444 1442 1440 1438 1437 1435 1434 1432 1431 1430 1429 1428 1427 1427 1427 1426 1426 1426 1426 1427 1428 1429 1429 1429 1429 1429 1429 1430 1431 1432 1433 1434 1436 1437 1438
1447 1446 1446 1445 1444 1444 1443 1441 1439 1437 1435 1433 1432 1430 1429 1428 1427 1426 1425 1423 1422 1422 1421 1421 1421 1421 1421 1421 1422 1422 1422 1422 1423 1423 1424 1425 1425 1427 1428 1429 1430 1431 1432
1442 1441 1441 1440 1440 1439 1438 1436 1435 1433 1430 1428 1426 1424 1423 1422 1421 1420 1420 1418 1417 1417 1417 1417 1416 1416 1416 1416 1416 1416 1416 1416 1417 1418 1418 1419 1419 1421 1422 1422 1423 1424 1425